Lulu Pass Weather Station

This weather station provides temperature, relative humidity (RH), wind speed, gust or max wind speed, and wind direction at 10020ft near Lulu Pass at the head of Fisher Creek. This data can be used with temperature and precipitation data from the Fisher Creek SNOTEL site.

This weather station was purchased by the Friends of the Avalanche Center.

If the data has not been updated recently you can view it directly on datagarrison.com

Elevation
10020ft
Jump to table bottom
Date Time Temperature
deg F
RH, % Wind Speed Wind Gust Wind Direction
08/18/22 18:00 63.0 46 3 12 W - 271
08/18/22 17:00 62.9 38 11 21 NW - 336
08/18/22 16:00 65.7 32 14 21 NW - 317
08/18/22 15:00 65.6 38 13 19 NW - 309
08/18/22 14:00 64.8 33 11 18 NW - 310
08/18/22 13:00 64.0 31 7 20 W - 278
08/18/22 12:00 64.5 31 6 16 NW - 296
08/18/22 11:00 62.7 30 5 12 W - 275
08/18/22 10:00 63.8 38 3 10 SE - 157
08/18/22 09:00 59.3 46 5 9 SE - 146
08/18/22 08:00 55.9 48 6 9 SE - 138
08/18/22 07:00 51.3 54 5 9 SE - 122
08/18/22 06:00 49.5 54 5 10 SE - 115
08/18/22 05:00 49.3 52 5 9 SE - 121
08/18/22 04:00 51.0 51 4 6 E - 108
08/18/22 03:00 50.5 51 3 6 E - 90
08/18/22 02:00 50.6 50 4 8 NE - 38
08/18/22 01:00 51.1 51 3 8 NE - 44
08/18/22 00:00 51.2 50 3 8 E - 84
08/17/22 23:00 51.8 48 3 7 NE - 59
08/17/22 22:00 53.0 46 5 12 NE - 46
08/17/22 21:00 54.5 42 5 13 NE - 46
08/17/22 20:00 57.0 37 6 14 NE - 31
08/17/22 19:00 59.4 32 10 16 NW - 321
08/17/22 18:00 63.3 26 14 22 NW - 319
08/17/22 17:00 64.6 24 16 26 NW - 321
08/17/22 16:00 63.5 24 17 28 NW - 333
08/17/22 15:00 66.7 23 16 31 W - 289
08/17/22 14:00 66.0 23 17 31 W - 292
08/17/22 13:00 68.2 26 10 24 W - 254
08/17/22 12:00 67.4 28 7 16 SW - 229
08/17/22 11:00 61.7 29 7 17 W - 292
08/17/22 10:00 61.8 30 7 12 NW - 299
08/17/22 09:00 59.4 33 8 12 NW - 298
08/17/22 08:00 56.6 41 6 10 NW - 324
08/17/22 07:00 54.3 46 6 7 N - 340
08/17/22 06:00 55.0 47 6 8 N - 354
08/17/22 05:00 52.9 51 4 7 NW - 330
08/17/22 04:00 54.1 50 5 8 NW - 327
08/17/22 03:00 53.3 49 5 10 NW - 316
08/17/22 02:00 54.9 44 3 5 SW - 236
08/17/22 01:00 55.7 42 3 6 E - 104
08/17/22 00:00 56.2 44 3 7 NE - 67
08/16/22 23:00 56.2 45 3 7 NE - 53
08/16/22 22:00 56.5 47 4 14 NE - 58
08/16/22 21:00 57.9 44 4 12 NE - 27
08/16/22 20:00 57.8 44 2 7 N - 18
08/16/22 19:00 58.9 45 2 10 NW - 313
08/16/22 18:00 59.6 38 3 9 NW - 295
08/16/22 17:00 63.8 32 6 15 NW - 314